Regional Weather Roundup
Issued by NWS Jackson, KY

Home | Current Version | Previous Version | Text Only | Print | Product List | Glossary Off
Versions: 1 2 3 4 5 6 7 8 9 10 11 12 13 14 15 16 17 18 19 20 21 22 23 24 25 26 27

000
ASUS43 KJKL 051910
RWRJKL

EAST KENTUCKY HOURLY WEATHER ROUNDUP
NATIONAL WEATHER SERVICE JACKSON KY
200 PM EST MON DEC 05 2016

NOTE: "FAIR" INDICATES FEW OR NO CLOUDS BELOW 12,000 FEET WITH
NO SIGNIFICANT WEATHER AND/OR OBSTRUCTIONS TO VISIBILITY.

* THESE REPORTS ARE NOT UNDER NWS QUALITY CONTROL AND MAY NOT
  REPORT WEATHER SUCH AS PRECIPITATION AND FOG.

KYZ079-080-083-085-087-088-110-112-115-119-120-052000
...EASTERN KENTUCKY...

CITY           SKY/WX    TMP DP  RH WIND       PRES   REMARKS
JACKSON        CLOUDY    48  37  65 CALM      30.02F
LONDON         CLOUDY    48  38  68 NE5       30.01F
SOMERSET*      CLOUDY    45  37  76 NE3       30.02F
MONTICELLO*    CLOUDY    47  41  80 VRB5      30.03F
WILLIAMSBURG*  CLOUDY    46  43  87 E3        30.00F
MIDDLESBORO*   MOSUNNY   50  43  78 CALM      30.00F
HARLAN APT*    PTCLDY    50  39  66 NE3       29.99F
PIKE CO APT*   CLOUDY    47  37  67 CALM      30.02F
BIG SANDY APT* CLOUDY    48  36  62 E3        30.04F
MOREHEAD APT*  CLOUDY    46  34  61 VRB5      30.07F
ASHLAND*       CLOUDY    48  37  66 N6        30.06F
$$

KYZ035-036-041-042-044-050-067-078-099-052000
...CENTRAL KENTUCKY...

CITY           SKY/WX    TMP DP  RH WIND       PRES   REMARKS
MT STERLING*   CLOUDY    45  36  70 E5        30.05F
FLEMING/MASON* CLOUDY    45  33  64 CALM      30.06F
DANVILLE*      CLOUDY    43  36  75 E8        30.04F
LEXINGTON      CLOUDY    44  34  67 E7        30.04F
FRANKFORT      CLOUDY    44  33  65 E8        30.03F
LOUISVILLE     CLOUDY    44  32  62 E7        30.04F
LEBANON*       CLOUDY    43  36  75 E5        30.04F
GLASGOW*       CLOUDY    42  40  92 NE8       30.01F
BOWLING GREEN  CLOUDY    44  38  79 NE9       30.02F
$$

KYZ091>093-OHZ055-061-077-WVZ005-015-034-035-042-052000
...SOUTHERN OHIO/WEST VIRGINIA...

CITY           SKY/WX    TMP DP  RH WIND       PRES   REMARKS
COVINGTON      CLOUDY    43  33  68 SE7       30.06F
COLUMBUS       CLOUDY    40  32  73 S7        30.11R
DAYTON         CLOUDY    40  31  70 VRB3      30.08F
WILMINGTON     MOSUNNY   43  34  70 CALM      30.07F
HUNTINGTON     MOSUNNY   48  34  58 CALM      30.06F
CHARLESTON     CLOUDY    50  37  61 N5        30.05F
PINEVILLE*     PTSUNNY   49  33  53 MISG      30.06F
BECKLEY        CLOUDY    45  34  65 N8        30.01F
BLUEFIELD      CLOUDY    46  34  62 N5        30.01F
LOGAN CO APT*    N/A     48  34  57 CALM      30.03F
$$

VAZ002-007-008-TNZ017-027-036-066-071-052000
...SOUTHWEST VIRGINIA/EAST TENNESSEE...

CITY           SKY/WX    TMP DP  RH WIND       PRES   REMARKS
WISE*          MOSUNNY   46  37  71 CALM      30.00F
JONESVILLE*      N/A     52  41  66 NE3       30.02F
ABINGDON*      MOSUNNY   52  39  61 N3        29.99F
BRISTOL        PTSUNNY   53  40  61 VRB3      29.99F
MORRISTOWN*    CLOUDY    52  46  82 E5        29.99S
SEVIERVILLE*   CLOUDY    50  46  87 NE3       29.99S
KNOXVILLE      CLOUDY    52  46  80 NE10      29.97F
OAK RIDGE      CLOUDY    52  44  74 NE5       30.00F
CROSSVILLE     CLOUDY    45  44  97 E6        29.97F FOG
NASHVILLE      CLOUDY    46  42  86 NE9       29.98F
$$

...KEY TO REMARKS...
VSB - VISIBILITY IN MILES
WCI - WIND CHILL INDEX
HX  - HEAT INDEX

$$




USA.gov is the U.S. government's official web portal to all federal, state and local government web resources and services.